Location: Marsån
(66.4167°N, 22.2833°E)
Time: 10:08:39
(UTC+00:00)

MOS 1 - Pass Details

Date: 24 February 2024
Orbit: 878 x 889 km, 99.0° (Epoch: 15 April)

Event Time Altitude Azimuth Distance (km) Brightness Sun altitude
Exits shadow 18:19:06 16° 156° (SSE) 2,129 5.9 -18.0°
Maximum altitude 18:23:42 88° 244° (WSW) 893 4.3 -18.5°
Drops below altitude 10° 18:29:26 10° 337° (NNW) 2,559 7.3 -19.0°
Sets 18:31:50 0° 338° (NNW) 3,503 8.1 -19.2°
